User: anonymous   Login
Location: Moncton
(46.0878°N, 64.7782°W)
Time: 23:36:05
(UTC-03:00)
Language:

ISS - Orbit

View from above orbital plane
View from above orbital plane
View from above satellite
View from above satellite

Ground track
Ground track

The orbit data is extracted from the following two-line orbital elements,

1 25544U 98067A   21271.55226854 -.00003271  00000-0 -51455-4 0  9999
2 25544  51.6461 191.6441 0003714  35.3416 138.4227 15.48870672304617
Epoch (UTC): 28 September 2021 13:15:16
Eccentricity: 0.0003714
inclination: 51.6461°
perigee height: 417 km
apogee height: 422 km
right ascension of ascending node: 191.6441°
argument of perigee: 35.3416°
revolutions per day: 15.48870672
mean anomaly at epoch: 138.4227°
orbit number at epoch: 30461

The dashed part of the orbit path shows where the satellite is in the earth's shadow,  

DLR